Time,TemperatureF,DewpointF,PressureIn,WindDirection,WindDirectionDegrees,WindSpeedMPH,WindSpeedGustMPH,Humidity,HourlyPrecipIn,Conditions,Clouds,dailyrainin,SoftwareType,DateUTC
2017-04-26 00:05:00,65.4,37.7,29.70,WSW,249,1.0,9.0,36,0.00,,,0.00,Wunderground v.1.15,2017-04-26 07:05:00,
2017-04-26 00:10:00,65.3,37.6,29.70,WSW,252,1.0,9.0,36,0.00,,,0.00,Wunderground v.1.15,2017-04-26 07:10:00,
2017-04-26 00:20:00,65.2,37.6,29.71,West,260,1.0,9.0,36,0.00,,,0.00,Wunderground v.1.15,2017-04-26 07:20:00,
2017-04-26 00:25:00,65.0,37.4,29.71,WSW,253,1.0,9.0,36,0.00,,,0.00,Wunderground v.1.15,2017-04-26 07:25:00,
2017-04-26 00:30:00,64.2,38.7,29.71,SE,143,0.0,9.0,39,0.00,,,0.00,Wunderground v.1.15,2017-04-26 07:30:00,
2017-04-26 00:35:00,62.2,38.2,29.71,SE,144,0.0,9.0,41,0.00,,,0.00,Wunderground v.1.15,2017-04-26 07:35:00,
2017-04-26 00:40:00,60.7,38.1,29.71,SE,143,0.0,9.0,43,0.00,,,0.00,Wunderground v.1.15,2017-04-26 07:40:00,
2017-04-26 00:45:00,59.5,38.1,29.71,SE,143,0.0,9.0,45,0.00,,,0.00,Wunderground v.1.15,2017-04-26 07:45:00,
2017-04-26 00:55:00,57.2,37.1,29.71,SE,143,0.0,9.0,47,0.00,,,0.00,Wunderground v.1.15,2017-04-26 07:55:00,
2017-04-26 01:05:00,55.4,37.6,29.71,SE,144,0.0,9.0,51,0.00,,,0.00,Wunderground v.1.15,2017-04-26 08:05:00,
2017-04-26 01:10:00,54.9,37.6,29.71,SE,144,0.0,9.0,52,0.00,,,0.00,Wunderground v.1.15,2017-04-26 08:10:00,
2017-04-26 01:15:00,54.9,37.6,29.71,SE,144,0.0,9.0,52,0.00,,,0.00,Wunderground v.1.15,2017-04-26 08:15:00,
2017-04-26 01:25:00,55.0,37.2,29.70,NNE,33,1.0,9.0,51,0.00,,,0.00,Wunderground v.1.15,2017-04-26 08:25:00,
2017-04-26 01:30:00,55.4,37.6,29.70,NNE,21,2.0,9.0,51,0.00,,,0.00,Wunderground v.1.15,2017-04-26 08:30:00,
2017-04-26 01:35:00,56.3,37.4,29.70,North,11,2.0,2.0,49,0.00,,,0.00,Wunderground v.1.15,2017-04-26 08:35:00,
2017-04-26 01:40:00,56.5,37.6,29.70,North,11,1.0,9.0,49,0.00,,,0.00,Wunderground v.1.15,2017-04-26 08:40:00,
2017-04-26 01:45:00,57.1,37.6,29.70,North,11,1.0,1.0,48,0.00,,,0.00,Wunderground v.1.15,2017-04-26 08:45:00,
2017-04-26 01:50:00,56.6,37.1,29.70,North,11,1.0,9.0,48,0.00,,,0.00,Wunderground v.1.15,2017-04-26 08:50:00,
2017-04-26 02:05:00,57.2,37.1,29.70,SSE,149,0.0,9.0,47,0.00,,,0.00,Wunderground v.1.15,2017-04-26 09:05:00,
2017-04-26 02:10:00,57.0,37.5,29.70,SSE,149,0.0,9.0,48,0.00,,,0.00,Wunderground v.1.15,2017-04-26 09:10:00,
2017-04-26 02:15:00,56.8,37.3,29.70,SSE,150,0.0,9.0,48,0.00,,,0.00,Wunderground v.1.15,2017-04-26 09:15:00,
2017-04-26 02:20:00,56.7,37.2,29.70,SSE,149,0.0,9.0,48,0.00,,,0.00,Wunderground v.1.15,2017-04-26 09:20:00,
2017-04-26 02:30:00,56.0,37.1,29.70,SE,127,0.0,9.0,49,0.00,,,0.00,Wunderground v.1.15,2017-04-26 09:30:00,
2017-04-26 02:35:00,55.5,37.1,29.70,SE,127,0.0,9.0,50,0.00,,,0.00,Wunderground v.1.15,2017-04-26 09:35:00,
2017-04-26 02:40:00,55.9,37.5,29.70,East,87,0.0,9.0,50,0.00,,,0.00,Wunderground v.1.15,2017-04-26 09:40:00,
2017-04-26 02:45:00,56.2,37.3,29.69,ESE,113,0.0,9.0,49,0.00,,,0.00,Wunderground v.1.15,2017-04-26 09:45:00,
2017-04-26 02:50:00,55.4,36.5,29.70,SE,141,0.0,9.0,49,0.00,,,0.00,Wunderground v.1.15,2017-04-26 09:50:00,
2017-04-26 02:55:00,55.4,36.5,29.71,SE,141,0.0,9.0,49,0.00,,,0.00,Wunderground v.1.15,2017-04-26 09:55:00,
2017-04-26 03:05:00,-999.9,-99.9,29.70,North,32767,-999.9,9.0,255,-99.99,,,0.00,Wunderground v.1.15,2017-04-26 10:05:00,
2017-04-26 03:10:00,-999.9,-99.9,29.70,North,32767,-999.9,9.0,255,-99.99,,,0.00,Wunderground v.1.15,2017-04-26 10:10:00,
2017-04-26 03:15:00,-999.9,-99.9,29.70,North,32767,-999.9,9.0,255,-99.99,,,0.00,Wunderground v.1.15,2017-04-26 10:15:00,
2017-04-26 03:20:00,-999.9,-99.9,29.71,North,32767,-999.9,9.0,255,-99.99,,,0.00,Wunderground v.1.15,2017-04-26 10:20:00,
2017-04-26 03:25:00,-999.9,-99.9,29.71,North,32767,-999.9,9.0,255,-99.99,,,0.00,Wunderground v.1.15,2017-04-26 10:25:00,
2017-04-26 03:35:00,-999.9,-99.9,29.71,North,32767,-999.9,9.0,255,-99.99,,,0.00,Wunderground v.1.15,2017-04-26 10:35:00,
2017-04-26 03:40:00,-999.9,-99.9,29.71,North,32767,-999.9,9.0,255,-99.99,,,0.00,Wunderground v.1.15,2017-04-26 10:40:00,
2017-04-26 03:45:00,-999.9,-99.9,29.71,North,32767,-999.9,9.0,255,-99.99,,,0.00,Wunderground v.1.15,2017-04-26 10:45:00,
2017-04-26 03:50:00,-999.9,-99.9,29.72,North,32767,-999.9,9.0,255,-99.99,,,0.00,Wunderground v.1.15,2017-04-26 10:50:00,
2017-04-26 03:55:00,-999.9,-99.9,29.71,North,32767,-999.9,9.0,255,-99.99,,,0.00,Wunderground v.1.15,2017-04-26 10:55:00,
2017-04-26 04:05:00,-999.9,-99.9,29.71,North,32767,-999.9,9.0,255,-99.99,,,0.00,Wunderground v.1.15,2017-04-26 11:05:00,
2017-04-26 04:10:00,-999.9,-99.9,29.71,North,32767,-999.9,9.0,255,-99.99,,,0.00,Wunderground v.1.15,2017-04-26 11:10:00,
2017-04-26 04:15:00,-999.9,-99.9,29.72,North,32767,-999.9,9.0,255,-99.99,,,0.00,Wunderground v.1.15,2017-04-26 11:15:00,
2017-04-26 04:20:00,-999.9,-99.9,29.72,North,32767,-999.9,9.0,255,-99.99,,,0.00,Wunderground v.1.15,2017-04-26 11:20:00,
2017-04-26 04:25:00,-999.9,-99.9,29.72,North,32767,-999.9,9.0,255,-99.99,,,0.00,Wunderground v.1.15,2017-04-26 11:25:00,
2017-04-26 04:30:00,-999.9,-99.9,29.71,North,32767,-999.9,9.0,255,-99.99,,,0.00,Wunderground v.1.15,2017-04-26 11:30:00,
2017-04-26 04:40:00,-999.9,-99.9,29.72,North,32767,-999.9,9.0,255,-99.99,,,0.00,Wunderground v.1.15,2017-04-26 11:40:00,
2017-04-26 04:45:00,-999.9,-99.9,29.72,North,32767,-999.9,9.0,255,-99.99,,,0.00,Wunderground v.1.15,2017-04-26 11:45:00,
2017-04-26 04:50:00,-999.9,-99.9,29.72,North,32767,-999.9,9.0,255,-99.99,,,0.00,Wunderground v.1.15,2017-04-26 11:50:00,
2017-04-26 04:55:00,-999.9,-99.9,29.72,North,32767,-999.9,9.0,255,-99.99,,,0.00,Wunderground v.1.15,2017-04-26 11:55:00,
2017-04-26 05:05:00,-999.9,-99.9,29.73,North,32767,-999.9,9.0,255,-99.99,,,0.00,Wunderground v.1.15,2017-04-26 12:05:00,
2017-04-26 05:15:00,-999.9,-99.9,29.73,North,32767,-999.9,9.0,255,-99.99,,,0.00,Wunderground v.1.15,2017-04-26 12:15:00,
2017-04-26 05:20:00,-999.9,-99.9,29.74,North,32767,-999.9,9.0,255,-99.99,,,0.00,Wunderground v.1.15,2017-04-26 12:20:00,
2017-04-26 05:25:00,-999.9,-99.9,29.73,North,32767,-999.9,9.0,255,-99.99,,,0.00,Wunderground v.1.15,2017-04-26 12:25:00,
2017-04-26 05:30:00,-999.9,-99.9,29.73,North,32767,-999.9,9.0,255,-99.99,,,0.00,Wunderground v.1.15,2017-04-26 12:30:00,
2017-04-26 05:35:00,-999.9,-99.9,29.74,North,32767,-999.9,9.0,255,-99.99,,,0.00,Wunderground v.1.15,2017-04-26 12:35:00,
2017-04-26 05:45:00,-999.9,-99.9,29.74,North,32767,-999.9,9.0,255,-99.99,,,0.00,Wunderground v.1.15,2017-04-26 12:45:00,
2017-04-26 05:50:00,-999.9,-99.9,29.73,North,32767,-999.9,9.0,255,-99.99,,,0.00,Wunderground v.1.15,2017-04-26 12:50:00,
2017-04-26 05:55:00,-999.9,-99.9,29.74,North,32767,-999.9,9.0,255,-99.99,,,0.00,Wunderground v.1.15,2017-04-26 12:55:00,
2017-04-26 06:05:00,-999.9,-99.9,29.74,North,32767,-999.9,9.0,255,-99.99,,,0.00,Wunderground v.1.15,2017-04-26 13:05:00,
2017-04-26 06:10:00,-999.9,-99.9,29.74,North,32767,-999.9,9.0,255,-99.99,,,0.00,Wunderground v.1.15,2017-04-26 13:10:00,
2017-04-26 06:20:00,47.3,36.5,29.75,North,6,0.0,9.0,66,0.00,,,0.00,Wunderground v.1.15,2017-04-26 13:20:00,
2017-04-26 06:25:00,48.1,36.9,29.75,North,5,0.0,9.0,65,0.00,,,0.00,Wunderground v.1.15,2017-04-26 13:25:00,
2017-04-26 06:30:00,48.9,37.3,29.75,North,5,0.0,9.0,64,0.00,,,0.00,Wunderground v.1.15,2017-04-26 13:30:00,
2017-04-26 06:35:00,50.2,37.7,29.75,North,5,0.0,9.0,62,0.00,,,0.00,Wunderground v.1.15,2017-04-26 13:35:00,
2017-04-26 06:40:00,51.8,38.3,29.76,North,5,0.0,9.0,60,0.00,,,0.00,Wunderground v.1.15,2017-04-26 13:40:00,
2017-04-26 06:50:00,53.6,39.2,29.76,NE,39,0.0,9.0,58,0.00,,,0.00,Wunderground v.1.15,2017-04-26 13:50:00,
2017-04-26 06:55:00,54.8,39.4,29.76,NE,39,0.0,9.0,56,0.00,,,0.00,Wunderground v.1.15,2017-04-26 13:55:00,
2017-04-26 07:05:00,57.4,39.9,29.76,NE,39,0.0,9.0,52,0.00,,,0.00,Wunderground v.1.15,2017-04-26 14:05:00,
2017-04-26 07:10:00,58.4,40.3,29.76,NE,39,0.0,9.0,51,0.00,,,0.00,Wunderground v.1.15,2017-04-26 14:10:00,
2017-04-26 07:15:00,59.4,40.7,29.77,NE,39,0.0,9.0,50,0.00,,,0.00,Wunderground v.1.15,2017-04-26 14:15:00,
2017-04-26 07:20:00,60.5,40.2,29.77,NE,39,0.0,9.0,47,0.00,,,0.00,Wunderground v.1.15,2017-04-26 14:20:00,
2017-04-26 07:25:00,61.5,39.9,29.77,NE,39,0.0,9.0,45,0.00,,,0.00,Wunderground v.1.15,2017-04-26 14:25:00,
2017-04-26 07:30:00,62.7,39.9,29.77,NNE,15,0.0,9.0,43,0.00,,,0.00,Wunderground v.1.15,2017-04-26 14:30:00,
2017-04-26 07:35:00,63.9,40.3,29.77,SE,136,0.0,9.0,42,0.00,,,0.00,Wunderground v.1.15,2017-04-26 14:35:00,
2017-04-26 07:40:00,65.3,39.7,29.77,SE,136,0.0,9.0,39,0.00,,,0.00,Wunderground v.1.15,2017-04-26 14:40:00,
2017-04-26 07:50:00,66.0,40.3,29.77,ENE,78,0.0,9.0,39,0.00,,,0.00,Wunderground v.1.15,2017-04-26 14:50:00,
2017-04-26 07:55:00,66.5,41.4,29.77,SE,132,0.0,9.0,40,0.00,,,0.00,Wunderground v.1.15,2017-04-26 14:55:00,
2017-04-26 08:05:00,66.8,39.0,29.77,SW,235,1.0,9.0,36,0.00,,,0.00,Wunderground v.1.15,2017-04-26 15:05:00,
2017-04-26 08:10:00,66.6,39.5,29.77,SSE,166,2.0,9.0,37,0.00,,,0.00,Wunderground v.1.15,2017-04-26 15:10:00,